Location: Eimen
(51.8766°N, 9.7806°E)
Time: 16:27:10
(UTC+00:00)

Cosmos 1782 Rocket - Pass Details

Date: 23 May 2024
Orbit: 602 x 629 km, 82.5° (Epoch: 24 June)

Event Time Altitude Azimuth Distance (km) Brightness Sun altitude
Rises 01:49:53 0° 342° (NNW) 2,903 7.6 -10.2°
Reaches altitude 10° 01:52:16 10° 334° (NNW) 1,988 6.5 -10.0°
Maximum altitude 01:56:14 34° 269° (W) 1,016 4.4 -9.6°
Enters shadow 01:59:48 12° 207° (SSW) 1,835 5.3 -9.3°
